軌道要素
Epoch 2022 Aug. 9.0 TT = JDT 2459800.5
T 2022 July 10.38501 TT Rudenko
q 1.4731523 (2000.0) P Q
n 0.15530970 Peri. 170.89709 -0.15680694 +0.91300436
a 3.4277068 Node 89.40484 -0.92818340 -0.00593468
e 0.5702222 Incl. 22.12507 -0.33747172 -0.40790663
P 6.35
From 259 observations 2003 Apr. 26-2022 June 20, mean residual 0".2.
|